Location: Unspecified
(0.0000°N, 0.0000°E)
Time: 23:03:40
(UTC+00:00)

NOSS 3-1 (A) - Pass Details

Date: 29 April 2019
Orbit: 778 x 1434 km, 63.4° (Epoch: 13 May)

Event Time Altitude Azimuth Distance (km) Brightness Sun altitude
Rises 05:28:39 0° 295° (WNW) 4,489 6.5 -7.0°
Reaches altitude 10° 05:33:55 10° 269° (W) 3,537 5.8 -5.7°
Maximum altitude 05:37:18 13° 246° (WSW) 3,322 5.6 -4.9°
Drops below altitude 10° 05:40:40 10° 223° (SW) 3,498 5.9 -4.1°
Sets 05:45:54 0° 196° (SSW) 4,390 6.6 -2.8°
